Portada
METAR-TAF:

METAR-TAF

Aeroports :

Mersing, Malàisia

latitud: 02-23-00N, longitud: 103-51-34E, altitud: 3 m

Observació

L'informe es va fer fa 27 minuts, a les 07:00 UTC
Vent 3 kt amb direcció variable
Temperatura 30°C
Humitat 75%
Pressió 1008 hPa
Visibilitat 10 km o més
Escasses núvols a una alçada de 2000 ft
Núvols disperses a una alçada de 2500 ft

METAR: WMAU 080700Z VRB03KT 9999 FEW020 SCT025 30/25 Q1008

Hora: 15:27 (07:27 UTC)


TAF: manca

Observacions i pronòstics meteorològics de més de 4000 aeroports (METAR i TAF).

Les estacions disponibles són els punts grocs i vermells al mapa.

Posi el ratolí al punt desitjat per veure el nom de l'estació.

Feu clic per veure les observacions i els pronòstics meteorològics.

Per canviar el mapa: feu clic els botons verds amb una creu de color negre per apropar; al botó verd amb un guió per allunyar la imatge; o en les fletxes verdes per a mapes adjacents.


METAR-TAF: